timestamp,wind_dir_avg,wind_spd_max_dir,wind_spd_avg,wind_spd_gust,battery_voltage,lat,long
2018-06-02 00:00:00+00:00,43.0,42.0,3.16,3.35,,47.59359,-54.27349
2018-06-02 00:10:00+00:00,50.0,50.0,4.01,4.16,,47.59359,-54.27349
2018-06-02 00:20:00+00:00,60.0,62.0,4.12,4.27,,47.59359,-54.27349
2018-06-02 00:30:00+00:00,66.0,63.0,4.23,4.54,,47.59359,-54.27349
2018-06-02 00:40:00+00:00,75.0,75.0,4.54,4.82,,47.59359,-54.27349
2018-06-02 00:50:00+00:00,73.0,76.0,3.97,4.74,,47.59359,-54.27349
2018-06-02 01:00:00+00:00,61.0,61.0,2.58,2.92,,47.59359,-54.27349
2018-06-02 01:10:00+00:00,22.0,9.0,1.27,1.8,,47.59359,-54.27349
2018-06-02 01:20:00+00:00,70.0,69.0,2.18,2.69,,47.59359,-54.27349
2018-06-02 01:30:00+00:00,70.0,86.0,1.39,2.49,,47.59359,-54.27349
2018-06-02 01:40:00+00:00,100.0,106.0,2.02,3.02,,47.59359,-54.27349
2018-06-02 01:50:00+00:00,81.0,80.0,2.49,3.14,,47.59359,-54.27349
2018-06-02 02:00:00+00:00,62.0,63.0,3.15,3.4,,47.59359,-54.27349
2018-06-02 02:10:00+00:00,67.0,66.0,2.68,2.91,,47.59359,-54.27349
2018-06-02 02:20:00+00:00,35.0,44.0,2.14,2.53,,47.59359,-54.27349
2018-06-02 02:30:00+00:00,62.0,65.0,3.17,3.4,,47.59359,-54.27349
2018-06-02 02:40:00+00:00,69.0,75.0,2.96,3.42,,47.59359,-54.27349
2018-06-02 02:50:00+00:00,43.0,47.0,3.16,3.33,,47.59359,-54.27349
2018-06-02 03:00:00+00:00,53.0,53.0,2.72,3.0,,47.59359,-54.27349
2018-06-02 03:10:00+00:00,67.0,68.0,4.0,4.31,,47.59359,-54.27349
2018-06-02 03:20:00+00:00,62.0,63.0,3.92,4.16,,47.59359,-54.27349
2018-06-02 03:30:00+00:00,63.0,65.0,3.83,3.95,,47.59359,-54.27349
2018-06-02 03:40:00+00:00,65.0,69.0,4.15,4.52,,47.59359,-54.27349
2018-06-02 03:50:00+00:00,54.0,55.0,2.94,3.4,,47.59359,-54.27349
2018-06-02 04:00:00+00:00,26.0,33.0,1.91,2.52,,47.59359,-54.27349
2018-06-02 04:10:00+00:00,41.0,45.0,2.91,3.35,,47.59359,-54.27349
2018-06-02 04:20:00+00:00,55.0,55.0,3.3,3.48,,47.59359,-54.27349
2018-06-02 04:30:00+00:00,71.0,71.0,3.57,3.75,,47.59359,-54.27349
2018-06-02 04:40:00+00:00,77.0,78.0,2.94,3.37,,47.59359,-54.27349
2018-06-02 04:50:00+00:00,58.0,59.0,3.15,3.56,,47.59359,-54.27349
2018-06-02 05:00:00+00:00,41.0,46.0,2.88,3.18,,47.59359,-54.27349
2018-06-02 05:10:00+00:00,57.0,54.0,3.37,3.64,,47.59359,-54.27349
2018-06-02 05:20:00+00:00,46.0,49.0,2.72,3.07,,47.59359,-54.27349
2018-06-02 05:30:00+00:00,18.0,21.0,3.12,3.38,,47.59359,-54.27349
2018-06-02 05:40:00+00:00,39.0,42.0,3.28,3.6,,47.59359,-54.27349
2018-06-02 05:50:00+00:00,60.0,58.0,3.07,3.29,,47.59359,-54.27349
2018-06-02 06:00:00+00:00,73.0,70.0,3.12,3.96,,47.59359,-54.27349
2018-06-02 06:10:00+00:00,84.0,83.0,5.21,5.44,,47.59359,-54.27349
2018-06-02 06:20:00+00:00,91.0,81.0,3.49,4.52,,47.59359,-54.27349
2018-06-02 06:30:00+00:00,87.0,93.0,4.02,4.99,,47.59359,-54.27349
2018-06-02 06:40:00+00:00,80.0,79.0,3.05,3.28,,47.59359,-54.27349
2018-06-02 06:50:00+00:00,69.0,66.0,3.55,3.91,,47.59359,-54.27349
2018-06-02 07:00:00+00:00,63.0,63.0,3.57,3.89,,47.59359,-54.27349
2018-06-02 07:10:00+00:00,66.0,68.0,4.67,4.98,,47.59359,-54.27349
2018-06-02 07:20:00+00:00,69.0,69.0,4.85,5.31,,47.59359,-54.27349
2018-06-02 07:30:00+00:00,75.0,73.0,4.28,4.83,,47.59359,-54.27349
2018-06-02 07:40:00+00:00,68.0,69.0,4.95,5.4,,47.59359,-54.27349
2018-06-02 07:50:00+00:00,49.0,54.0,4.27,4.64,,47.59359,-54.27349
2018-06-02 08:00:00+00:00,44.0,42.0,4.37,5.11,,47.59359,-54.27349
2018-06-02 08:10:00+00:00,58.0,60.0,5.1,5.83,,47.59359,-54.27349
2018-06-02 08:20:00+00:00,59.0,59.0,4.79,5.24,,47.59359,-54.27349
2018-06-02 08:30:00+00:00,73.0,72.0,5.28,6.05,,47.59359,-54.27349
2018-06-02 08:40:00+00:00,79.0,80.0,6.2,6.6,,47.59359,-54.27349
2018-06-02 08:50:00+00:00,81.0,82.0,5.85,6.07,,47.59359,-54.27349
2018-06-02 09:00:00+00:00,60.0,66.0,4.68,6.4,,47.59359,-54.27349
2018-06-02 09:10:00+00:00,57.0,56.0,5.48,5.9,,47.59359,-54.27349
2018-06-02 09:20:00+00:00,62.0,63.0,5.54,6.38,,47.59359,-54.27349
2018-06-02 09:30:00+00:00,57.0,58.0,5.62,6.27,,47.59359,-54.27349
2018-06-02 09:40:00+00:00,59.0,60.0,5.0,5.67,,47.59359,-54.27349
2018-06-02 09:50:00+00:00,56.0,59.0,4.92,5.59,,47.59359,-54.27349
2018-06-02 10:00:00+00:00,62.0,60.0,4.69,5.76,,47.59359,-54.27349
2018-06-02 10:10:00+00:00,70.0,72.0,5.41,6.25,,47.59359,-54.27349
2018-06-02 10:20:00+00:00,54.0,52.0,3.9,4.57,,47.59359,-54.27349
2018-06-02 10:30:00+00:00,65.0,63.0,3.84,4.57,,47.59359,-54.27349
2018-06-02 10:40:00+00:00,70.0,72.0,4.96,5.91,,47.59359,-54.27349
2018-06-02 10:50:00+00:00,75.0,72.0,4.47,5.15,,47.59359,-54.27349
2018-06-02 11:00:00+00:00,71.0,75.0,4.01,4.68,,47.59359,-54.27349
2018-06-02 11:10:00+00:00,53.0,52.0,3.32,3.64,,47.59359,-54.27349
2018-06-02 11:20:00+00:00,81.0,83.0,4.48,4.82,,47.59359,-54.27349
2018-06-02 11:30:00+00:00,79.0,84.0,3.73,4.11,,47.59359,-54.27349
2018-06-02 11:40:00+00:00,90.0,88.0,4.98,6.31,,47.59359,-54.27349
2018-06-02 11:50:00+00:00,89.0,96.0,6.02,7.31,,47.59359,-54.27349
2018-06-02 12:00:00+00:00,85.0,85.0,5.82,6.17,,47.59359,-54.27349
2018-06-02 12:10:00+00:00,89.0,82.0,5.98,7.63,,47.59359,-54.27349
2018-06-02 12:20:00+00:00,101.0,112.0,3.88,6.22,,47.59359,-54.27349
2018-06-02 12:30:00+00:00,93.0,89.0,3.05,4.48,,47.59359,-54.27349
2018-06-02 12:40:00+00:00,86.0,88.0,4.6,5.73,,47.59359,-54.27349
2018-06-02 12:50:00+00:00,76.0,77.0,5.63,5.98,,47.59359,-54.27349
2018-06-02 13:00:00+00:00,14.0,5.0,3.03,3.69,,47.59359,-54.27349
2018-06-02 13:10:00+00:00,0.0,13.0,2.22,2.65,,47.59359,-54.27349
2018-06-02 13:20:00+00:00,30.0,40.0,2.02,2.68,,47.59359,-54.27349
2018-06-02 13:30:00+00:00,63.0,62.0,2.49,2.61,,47.59359,-54.27349
2018-06-02 13:40:00+00:00,86.0,87.0,4.73,5.37,,47.59359,-54.27349
2018-06-02 13:50:00+00:00,89.0,93.0,3.65,4.68,,47.59359,-54.27349
2018-06-02 14:00:00+00:00,90.0,78.0,3.85,5.24,,47.59359,-54.27349
2018-06-02 14:10:00+00:00,85.0,80.0,3.99,4.98,,47.59359,-54.27349
2018-06-02 14:20:00+00:00,70.0,72.0,3.65,4.78,,47.59359,-54.27349
2018-06-02 14:30:00+00:00,69.0,70.0,3.4,3.77,,47.59359,-54.27349
2018-06-02 14:40:00+00:00,31.0,11.0,2.01,2.76,,47.59359,-54.27349
2018-06-02 14:50:00+00:00,319.0,315.0,1.63,2.16,,47.59359,-54.27349
2018-06-02 15:00:00+00:00,47.0,47.0,1.71,1.91,,47.59359,-54.27349
2018-06-02 15:10:00+00:00,65.0,63.0,2.25,2.97,,47.59359,-54.27349
2018-06-02 15:20:00+00:00,34.0,40.0,1.53,1.84,,47.59359,-54.27349
2018-06-02 15:30:00+00:00,353.0,349.0,0.69,0.91,,47.59359,-54.27349
2018-06-02 15:40:00+00:00,246.0,246.0,0.34,0.57,,47.59359,-54.27349
2018-06-02 15:50:00+00:00,15.0,13.0,0.45,0.94,,47.59359,-54.27349
2018-06-02 16:00:00+00:00,167.0,122.0,0.79,2.0,,47.59359,-54.27349
2018-06-02 16:10:00+00:00,141.0,135.0,1.98,2.69,,47.59359,-54.27349
2018-06-02 16:20:00+00:00,216.0,216.0,1.25,1.45,,47.59359,-54.27349
2018-06-02 16:30:00+00:00,72.0,70.0,4.98,6.3,,47.59359,-54.27349
2018-06-02 16:40:00+00:00,87.0,87.0,7.18,8.85,,47.59359,-54.27349
2018-06-02 16:50:00+00:00,113.0,120.0,4.84,6.77,,47.59359,-54.27349
2018-06-02 17:00:00+00:00,118.0,127.0,4.98,7.81,,47.59359,-54.27349
2018-06-02 17:10:00+00:00,114.0,129.0,3.1,4.86,,47.59359,-54.27349
2018-06-02 17:20:00+00:00,89.0,89.0,4.04,5.58,,47.59359,-54.27349
2018-06-02 17:30:00+00:00,86.0,79.0,4.4,7.02,,47.59359,-54.27349
2018-06-02 17:40:00+00:00,84.0,86.0,4.74,6.14,,47.59359,-54.27349
2018-06-02 17:50:00+00:00,80.0,81.0,5.01,5.93,,47.59359,-54.27349
2018-06-02 18:00:00+00:00,81.0,67.0,5.16,6.42,,47.59359,-54.27349
2018-06-02 18:10:00+00:00,28.0,16.0,2.78,3.8,,47.59359,-54.27349
2018-06-02 18:20:00+00:00,40.0,46.0,2.5,3.37,,47.59359,-54.27349
2018-06-02 18:30:00+00:00,77.0,95.0,2.69,4.61,,47.59359,-54.27349
2018-06-02 18:40:00+00:00,86.0,83.0,5.95,7.49,,47.59359,-54.27349
2018-06-02 18:50:00+00:00,84.0,85.0,4.51,5.66,,47.59359,-54.27349
2018-06-02 19:00:00+00:00,84.0,87.0,6.6,7.37,,47.59359,-54.27349
2018-06-02 19:10:00+00:00,79.0,83.0,7.23,8.49,,47.59359,-54.27349
2018-06-02 19:20:00+00:00,75.0,78.0,7.17,8.46,,47.59359,-54.27349
2018-06-02 19:30:00+00:00,82.0,84.0,7.67,8.61,,47.59359,-54.27349
2018-06-02 19:40:00+00:00,82.0,86.0,8.83,9.59,,47.59359,-54.27349
2018-06-02 19:50:00+00:00,81.0,80.0,9.45,10.04,,47.59359,-54.27349
2018-06-02 20:00:00+00:00,80.0,85.0,8.25,9.02,,47.59359,-54.27349
2018-06-02 20:10:00+00:00,85.0,80.0,7.3,8.46,,47.59359,-54.27349
2018-06-02 20:20:00+00:00,83.0,82.0,7.07,7.99,,47.59359,-54.27349
2018-06-02 20:30:00+00:00,77.0,72.0,7.16,8.56,,47.59359,-54.27349
2018-06-02 20:40:00+00:00,71.0,72.0,7.75,8.92,,47.59359,-54.27349
2018-06-02 20:50:00+00:00,67.0,67.0,8.57,9.42,,47.59359,-54.27349
2018-06-02 21:00:00+00:00,75.0,78.0,9.49,10.69,,47.59359,-54.27349
2018-06-02 21:10:00+00:00,77.0,80.0,8.69,9.9,,47.59359,-54.27349
2018-06-02 21:20:00+00:00,76.0,72.0,7.75,8.98,,47.59359,-54.27349
2018-06-02 21:30:00+00:00,79.0,79.0,9.75,10.48,,47.59359,-54.27349
2018-06-02 21:40:00+00:00,78.0,79.0,9.64,10.67,,47.59359,-54.27349
2018-06-02 21:50:00+00:00,81.0,84.0,9.38,10.6,,47.59359,-54.27349
2018-06-02 22:00:00+00:00,77.0,80.0,8.98,10.2,,47.59359,-54.27349
2018-06-02 22:10:00+00:00,76.0,77.0,7.56,8.62,,47.59359,-54.27349
2018-06-02 22:20:00+00:00,79.0,75.0,7.68,8.83,,47.59359,-54.27349
2018-06-02 22:30:00+00:00,79.0,81.0,8.11,9.37,,47.59359,-54.27349
2018-06-02 22:40:00+00:00,75.0,74.0,7.25,8.06,,47.59359,-54.27349
2018-06-02 22:50:00+00:00,73.0,73.0,7.44,8.29,,47.59359,-54.27349
2018-06-02 23:00:00+00:00,75.0,74.0,7.29,8.28,,47.59359,-54.27349
2018-06-02 23:10:00+00:00,62.0,60.0,7.41,7.74,,47.59359,-54.27349
2018-06-02 23:20:00+00:00,65.0,63.0,8.59,9.42,,47.59359,-54.27349
2018-06-02 23:30:00+00:00,69.0,71.0,7.71,8.13,,47.59359,-54.27349
2018-06-02 23:40:00+00:00,68.0,68.0,7.35,7.82,,47.59359,-54.27349
2018-06-02 23:50:00+00:00,66.0,68.0,7.13,7.79,,47.59359,-54.27349
